{"data":{"norad_id":59353,"epoch":"2026-09-21T07:31:18.786432Z","epoch_age_seconds":92027,"freshness":"FRESH","line1":"1 59353U 24060F   26264.31341188 -.00000173  00000+0  32212-5 0  9992","line2":"2 59353  43.0032 234.8491 0001120 267.1643  92.9081 15.27576386139982","mean_motion":15.27576386,"eccentricity":0.000112,"inclination_deg":43.0032,"raan_deg":234.8491,"arg_perigee_deg":267.1643,"mean_anomaly_deg":92.9081,"bstar":3.2212e-6,"rev_number":13998,"period_min":94.266971733615,"perigee_km":482.29146362234,"apogee_km":483.8283717319,"semimajor_km":6861.1969176771,"source":"CELESTRAK","updated_at":"2026-09-22T09:00:48.903882Z"}}